When you browse on this site, cookies collect data to enhance your experience and personalize the content and advertising you see.
Visit our Privacy Policy to learn more. By continuing to use the site, you agree to this use of cookies and data.
  • en Suisse
  • Liste des pays
  • À 7 jours
  • Température de l'eau
  • Carte météo
  • Widgets météo
  • user-avatar
    Se connecter

    Météo par heure à San Carlos

    Ce jour, 23 Octobre, Mercredi

    Heure Température Précipitation Vent Pression Humidité
    00:00 +24°C° 0 mm 1 m/s 743 mmHg 95%
    01:00 +24°C° 0 mm 1 m/s 742 mmHg 95%
    02:00 +24°C° 0 mm 1 m/s 743 mmHg 95%
    03:00 +23°C° 0 mm 1 m/s 743 mmHg 94%
    04:00 +23°C° 0 mm 1 m/s 743 mmHg 94%
    05:00 +24°C° 0 mm 1 m/s 743 mmHg 92%
    06:00 +23°C° 0 mm 0 m/s 744 mmHg 91%
    07:00 +24°C° 0 mm 0 m/s 744 mmHg 89%
    08:00 +26°C° 0.9 mm 0 m/s 744 mmHg 85%
    09:00 +27°C° 0.9 mm 0 m/s 744 mmHg 81%
    10:00 +31°C° 0.9 mm 1 m/s 745 mmHg 76%
    11:00 +31°C° 1.1 mm 1 m/s 744 mmHg 77%
    12:00 +31°C° 1.1 mm 1 m/s 743 mmHg 77%
    13:00 +31°C° 1.1 mm 1 m/s 742 mmHg 78%
    14:00 +31°C° 0.5 mm 1 m/s 742 mmHg 80%
    15:00 +30°C° 0.5 mm 1 m/s 742 mmHg 82%
    16:00 +30°C° 0.5 mm 1 m/s 742 mmHg 85%
    17:00 +28°C° 0.6 mm 1 m/s 742 mmHg 88%
    18:00 +27°C° 0.6 mm 1 m/s 742 mmHg 91%
    19:00 +24°C° 0.6 mm 0 m/s 743 mmHg 94%
    20:00 +25°C° 0 mm 1 m/s 743 mmHg 94%
    21:00 +25°C° 0 mm 1 m/s 743 mmHg 95%
    22:00 +25°C° 0 mm 1 m/s 744 mmHg 95%
    23:00 +25°C° 0 mm 1 m/s 743 mmHg 95%

    Demain, 24 Octobre, Jeudi

    Heure Température Précipitation Vent Pression Humidité
    00:00 +24°C° 0 mm 1 m/s 743 mmHg 95%
    01:00 +24°C° 0 mm 1 m/s 742 mmHg 95%
    02:00 +24°C° 0 mm 1 m/s 742 mmHg 95%
    03:00 +24°C° 0 mm 1 m/s 742 mmHg 94%
    04:00 +24°C° 0 mm 1 m/s 742 mmHg 94%
    05:00 +22°C° 0 mm 0 m/s 743 mmHg 92%
    06:00 +23°C° 0 mm 0 m/s 743 mmHg 90%
    07:00 +24°C° 0 mm 0 m/s 744 mmHg 88%
    08:00 +28°C° 0 mm 1 m/s 744 mmHg 81%
    09:00 +29°C° 0 mm 1 m/s 744 mmHg 75%
    10:00 +31°C° 0 mm 1 m/s 745 mmHg 68%
    11:00 +31°C° 0 mm 1 m/s 744 mmHg 68%
    12:00 +32°C° 0 mm 1 m/s 743 mmHg 68%
    13:00 +32°C° 0 mm 1 m/s 741 mmHg 67%
    14:00 +32°C° 0 mm 1 m/s 741 mmHg 70%
    15:00 +31°C° 0 mm 1 m/s 741 mmHg 73%
    16:00 +29°C° 0 mm 0 m/s 741 mmHg 76%
    17:00 +27°C° 0 mm 0 m/s 742 mmHg 81%
    18:00 +26°C° 0 mm 0 m/s 742 mmHg 85%
    19:00 +24°C° 0 mm 0 m/s 742 mmHg 89%
    20:00 +26°C° 0.1 mm 1 m/s 743 mmHg 91%
    21:00 +25°C° 0.1 mm 1 m/s 743 mmHg 92%
    22:00 +25°C° 0.1 mm 1 m/s 743 mmHg 93%
    23:00 +25°C° 0.2 mm 1 m/s 743 mmHg 94%

    Après-demain, 25 Octobre, Vendredi

    Heure Température Précipitation Vent Pression Humidité
    00:00 +25°C° 0.2 mm 1 m/s 743 mmHg 94%
    01:00 +24°C° 0.2 mm 1 m/s 743 mmHg 95%
    02:00 +24°C° 0 mm 1 m/s 743 mmHg 95%
    03:00 +22°C° 0 mm 0 m/s 743 mmHg 95%
    04:00 +22°C° 0 mm 0 m/s 743 mmHg 95%
    05:00 +23°C° 0 mm 0 m/s 743 mmHg 93%
    06:00 +24°C° 0 mm 0 m/s 744 mmHg 92%
    07:00 +25°C° 0 mm 0 m/s 744 mmHg 91%
    08:00 +26°C° 0.7 mm 0 m/s 745 mmHg 86%
    09:00 +29°C° 0.7 mm 1 m/s 745 mmHg 82%
    10:00 +30°C° 0.7 mm 2 m/s 745 mmHg 78%
    11:00 +30°C° 0.9 mm 2 m/s 744 mmHg 77%
    12:00 +31°C° 0.9 mm 2 m/s 743 mmHg 76%
    13:00 +31°C° 0.9 mm 1 m/s 743 mmHg 75%
    14:00 +30°C° 1.1 mm 1 m/s 742 mmHg 81%
    15:00 +29°C° 1.1 mm 1 m/s 742 mmHg 86%
    16:00 +26°C° 1.1 mm 0 m/s 742 mmHg 92%
    17:00 +26°C° 0.5 mm 0 m/s 742 mmHg 93%
    18:00 +27°C° 0.5 mm 1 m/s 743 mmHg 94%
    19:00 +26°C° 0.5 mm 1 m/s 743 mmHg 95%
    20:00 +25°C° 0.4 mm 1 m/s 744 mmHg 95%
    21:00 +25°C° 0.4 mm 1 m/s 744 mmHg 96%
    22:00 +25°C° 0.4 mm 1 m/s 744 mmHg 96%
    23:00 +25°C° 0 mm 1 m/s 744 mmHg 96%

    26 Octobre, Samedi

    Heure Température Précipitation Vent Pression Humidité
    00:00 +24°C° 0 mm 1 m/s 743 mmHg 96%
    01:00 +24°C° 0 mm 1 m/s 743 mmHg 96%
    02:00 +24°C° 0 mm 1 m/s 743 mmHg 96%
    03:00 +24°C° 0 mm 1 m/s 743 mmHg 96%
    04:00 +24°C° 0 mm 1 m/s 743 mmHg 95%
    05:00 +23°C° 0 mm 0 m/s 744 mmHg 94%
    06:00 +24°C° 0 mm 0 m/s 744 mmHg 93%
    07:00 +24°C° 0 mm 0 m/s 745 mmHg 92%
    08:00 +28°C° 0.1 mm 1 m/s 745 mmHg 85%
    09:00 +30°C° 0.1 mm 1 m/s 745 mmHg 78%
    10:00 +31°C° 0.1 mm 1 m/s 745 mmHg 70%
    11:00 +31°C° 0.4 mm 1 m/s 744 mmHg 72%
    12:00 +32°C° 0.4 mm 1 m/s 744 mmHg 73%
    13:00 +32°C° 0.4 mm 1 m/s 743 mmHg 74%
    14:00 +31°C° 0.5 mm 1 m/s 743 mmHg 78%
    15:00 +31°C° 0.5 mm 1 m/s 742 mmHg 82%
    16:00 +30°C° 0.5 mm 1 m/s 742 mmHg 86%
    17:00 +29°C° 1.1 mm 1 m/s 742 mmHg 89%
    18:00 +28°C° 1.1 mm 1 m/s 743 mmHg 92%
    19:00 +24°C° 1.1 mm 0 m/s 743 mmHg 95%
    20:00 +26°C° 0.4 mm 1 m/s 743 mmHg 96%
    21:00 +26°C° 0.4 mm 1 m/s 744 mmHg 96%
    22:00 +25°C° 0.4 mm 1 m/s 744 mmHg 96%
    23:00 +25°C° 0.5 mm 1 m/s 744 mmHg 96%

    27 Octobre, Dimanche

    Heure Température Précipitation Vent Pression Humidité
    00:00 +25°C° 0.5 mm 1 m/s 743 mmHg 96%
    01:00 +25°C° 0.5 mm 1 m/s 743 mmHg 97%
    02:00 +24°C° 0.2 mm 1 m/s 743 mmHg 97%
    03:00 +24°C° 0.2 mm 1 m/s 743 mmHg 96%
    04:00 +24°C° 0.2 mm 1 m/s 743 mmHg 96%
    05:00 +23°C° 0 mm 0 m/s 743 mmHg 95%
    06:00 +24°C° 0 mm 0 m/s 744 mmHg 94%
    07:00 +24°C° 0 mm 0 m/s 744 mmHg 93%
    08:00 +28°C° 0.2 mm 1 m/s 745 mmHg 86%
    09:00 +29°C° 0.2 mm 1 m/s 745 mmHg 79%
    10:00 +31°C° 0.2 mm 2 m/s 745 mmHg 73%
    11:00 +31°C° 0.3 mm 2 m/s 744 mmHg 71%
    12:00 +32°C° 0.3 mm 2 m/s 743 mmHg 70%
    13:00 +32°C° 0.3 mm 2 m/s 742 mmHg 68%
    14:00 +31°C° 0.6 mm 2 m/s 742 mmHg 74%
    15:00 +31°C° 0.6 mm 1 m/s 742 mmHg 80%
    16:00 +30°C° 0.6 mm 1 m/s 741 mmHg 85%
    17:00 +29°C° 0.5 mm 1 m/s 742 mmHg 89%
    18:00 +27°C° 0.5 mm 1 m/s 742 mmHg 92%
    19:00 +24°C° 0.5 mm 0 m/s 743 mmHg 96%
    20:00 +24°C° 0.4 mm 0 m/s 743 mmHg 96%
    21:00 +23°C° 0.4 mm 0 m/s 743 mmHg 96%
    22:00 +23°C° 0.4 mm 0 m/s 744 mmHg 96%
    23:00 +25°C° 0.1 mm 1 m/s 743 mmHg 96%

    28 Octobre, Lundi

    Heure Température Précipitation Vent Pression Humidité
    00:00 +25°C° 0.1 mm 1 m/s 743 mmHg 96%
    01:00 +25°C° 0.1 mm 1 m/s 743 mmHg 96%
    02:00 +25°C° 0 mm 1 m/s 743 mmHg 96%
    03:00 +24°C° 0 mm 1 m/s 743 mmHg 96%
    04:00 +24°C° 0 mm 1 m/s 742 mmHg 96%
    05:00 +23°C° 0 mm 0 m/s 743 mmHg 95%
    06:00 +24°C° 0 mm 0 m/s 744 mmHg 94%
    07:00 +25°C° 0 mm 0 m/s 744 mmHg 92%
    08:00 +28°C° 0.3 mm 1 m/s 744 mmHg 87%
    09:00 +29°C° 0.3 mm 1 m/s 745 mmHg 81%
    10:00 +30°C° 0.3 mm 2 m/s 745 mmHg 75%
    11:00 +31°C° 0.1 mm 2 m/s 744 mmHg 73%
    12:00 +31°C° 0.1 mm 2 m/s 743 mmHg 70%
    13:00 +32°C° 0.1 mm 2 m/s 742 mmHg 68%
    14:00 +31°C° 0.3 mm 1 m/s 742 mmHg 73%
    15:00 +31°C° 0.3 mm 1 m/s 741 mmHg 78%
    16:00 +28°C° 0.3 mm 0 m/s 741 mmHg 83%
    17:00 +29°C° 0.7 mm 1 m/s 742 mmHg 87%
    18:00 +27°C° 0.7 mm 1 m/s 742 mmHg 90%
    19:00 +26°C° 0.7 mm 1 m/s 743 mmHg 94%
    20:00 +26°C° 0.1 mm 1 m/s 743 mmHg 94%
    21:00 +25°C° 0.1 mm 1 m/s 743 mmHg 94%
    22:00 +25°C° 0.1 mm 1 m/s 743 mmHg 95%
    23:00 +25°C° 0 mm 1 m/s 743 mmHg 95%

    29 Octobre, Mardi

    Heure Température Précipitation Vent Pression Humidité
    00:00 +25°C° 0 mm 1 m/s 743 mmHg 95%
    01:00 +24°C° 0 mm 1 m/s 742 mmHg 95%
    02:00 +24°C° 0 mm 1 m/s 742 mmHg 95%
    03:00 +24°C° 0 mm 1 m/s 742 mmHg 95%
    04:00 +24°C° 0 mm 1 m/s 742 mmHg 94%
    05:00 +23°C° 0 mm 0 m/s 743 mmHg 93%
    06:00 +24°C° 0 mm 0 m/s 744 mmHg 91%
    07:00 +25°C° 0 mm 0 m/s 744 mmHg 90%
    08:00 +28°C° 0.2 mm 1 m/s 744 mmHg 83%
    09:00 +29°C° 0.2 mm 1 m/s 745 mmHg 77%
    10:00 +31°C° 0.2 mm 2 m/s 745 mmHg 71%
    11:00 +31°C° 0 mm 2 m/s 744 mmHg 69%
    12:00 +32°C° 0 mm 2 m/s 743 mmHg 67%
    13:00 +32°C° 0 mm 2 m/s 742 mmHg 64%
    14:00 +32°C° 0 mm 1 m/s 742 mmHg 69%
    15:00 +31°C° 0 mm 1 m/s 741 mmHg 74%
    16:00 +31°C° 0 mm 1 m/s 741 mmHg 79%
    17:00 +29°C° 0 mm 1 m/s 741 mmHg 83%
    18:00 +28°C° 0 mm 1 m/s 742 mmHg 87%
    19:00 +26°C° 0 mm 1 m/s 742 mmHg 90%
    Voir plus